FW3063 Weather Reports


time (UTC)temp
C
wind
direction
speed
KPH
gust
KPH
rain 1hr
cm
rain 24hr
cm
rain mn
cm
humidity
%
barometer
mb
20260504045823 12 179 1.6 3.2 0.00 0.00 0.00 54 1002.9
20260504044815 12 179 1.6 3.2 0.00 0.00 0.00 54 1003.1
20260504043823 12 180 1.6 3.2 0.00 0.00 0.00 53 1003.4
20260504042830 12 176 1.6 3.2 0.00 0.00 0.00 52 1003.4
20260504041823 12 183 1.6 3.2 0.00 0.00 0.00 51 1003.6
20260504040815 12 0.0 0.0 0.00 0.00 0.00 49 1003.9
20260504035823 12 0.0 0.0 0.00 0.00 0.00 49 1004.2
20260504034816 13 0.0 0.0 0.00 0.00 0.00 46 1004.4
20260504033923 13 0.0 0.0 0.00 0.00 0.00 44 1004.6
20260504032831 12 0.0 0.0 0.00 0.00 0.00 45 1004.6
20260504031823 13 0.0 0.0 0.00 0.00 0.00 42 1004.7
20260504030815 13 0.0 0.0 0.00 0.00 0.00 42 1004.7
20260504025823 14 0.0 0.0 0.00 0.00 0.00 42 1004.9
20260504024815 15 0.0 0.0 0.00 0.00 0.00 40 1004.8
20260504023823 15 0.0 0.0 0.00 0.00 0.00 39 1005.0
20260504022831 15 0.0 0.0 0.00 0.00 0.00 38 1005.1
20260504021823 15 0.0 0.0 0.00 0.00 0.00 38 1005.0
20260504020815 15 213 0.0 3.2 0.00 0.00 0.00 38 1005.1
20260504015823 16 0.0 0.0 0.00 0.00 0.00 36 1005.1
20260504014815 16 0.0 0.0 0.00 0.00 0.00 36 1005.1
20260504013823 16 0.0 0.0 0.00 0.00 0.00 36 1005.2
20260504012830 17 0.0 0.0 0.00 0.00 0.00 34 1005.1
20260504011823 17 211 0.0 1.6 0.00 0.00 0.00 33 1005.3
20260504010845 18 224 1.6 3.2 0.00 0.00 0.00 31 1005.3
20260504005823 18 221 1.6 4.8 0.00 0.00 0.00 31 1005.4
20260504004816 18 248 4.8 9.7 0.00 0.00 0.00 30 1005.3
20260504003823 19 227 1.6 3.2 0.00 0.00 0.00 30 1005.4
20260504002815 19 258 3.2 4.8 0.00 0.00 0.00 30 1005.4
20260504001823 19 243 1.6 4.8 0.00 0.00 0.00 30 1005.4
20260504000815 20 217 3.2 4.8 0.00 0.00 0.00 29 1005.5
20260503235853 20 218 3.2 9.7 0.00 0.00 0.00 28 1005.5
20260503234815 21 234 3.2 4.8 0.00 0.00 0.00 27 1005.6
20260503233823 21 230 1.6 3.2 0.00 0.00 0.00 27 1005.4
20260503232859 21 238 3.2 9.7 0.00 0.00 0.00 27 1005.6
20260503231851 21 232 4.8 9.7 0.00 0.00 0.00 26 1005.8
20260503230815 21 244 4.8 6.4 0.00 0.00 0.00 25 1005.8
20260503225922 21 253 4.8 6.4 0.00 0.00 0.00 26 1005.8
20260503224829 21 207 4.8 11.3 0.00 0.00 0.00 26 1005.9
20260503223816 21 203 3.2 12.9 0.00 0.00 0.00 26 1006.0
20260503222816 21 234 3.2 4.8 0.00 0.00 0.00 26 1006.0
20260503221825 21 259 4.8 12.9 0.00 0.00 0.00 26 1006.0
20260503220815 21 237 4.8 9.7 0.00 0.00 0.00 26 1006.0
20260503215824 21 253 3.2 9.7 0.00 0.00 0.00 27 1006.2
20260503214815 22 259 4.8 9.7 0.00 0.00 0.00 27 1006.2
20260503213854 21 278 4.8 11.3 0.00 0.00 0.00 27 1006.1
20260503212815 21 260 3.2 9.7 0.00 0.00 0.00 26 1006.2
20260503211823 21 238 6.4 12.9 0.00 0.00 0.00 27 1006.3
20260503210831 21 240 3.2 6.4 0.00 0.00 0.00 30 1006.3
20260503205851 21 257 4.8 9.7 0.00 0.00 0.00 28 1006.4
20260503204824 21 250 4.8 9.7 0.00 0.00 0.00 28 1006.4
20260503203824 21 241 3.2 4.8 0.00 0.00 0.00 28 1006.4
20260503202815 21 253 4.8 9.7 0.00 0.00 0.00 28 1006.5
20260503201825 21 184 1.6 4.8 0.00 0.00 0.00 29 1006.7
20260503200816 21 229 6.4 14.5 0.00 0.00 0.00 28 1006.8
20260503195824 21 342 6.4 14.5 0.00 0.00 0.00 29 1006.9
20260503194846 21 331 6.4 11.3 0.00 0.00 0.00 27 1007.0
20260503193824 21 230 4.8 11.3 0.00 0.00 0.00 29 1007.1
20260503192816 20 256 6.4 9.7 0.00 0.00 0.00 28 1007.2
20260503191824 20 245 3.2 9.7 0.00 0.00 0.00 28 1007.3
20260503190816 21 228 3.2 6.4 0.00 0.00 0.00 29 1007.2
20260503185855 21 287 4.8 9.7 0.00 0.00 0.00 31 1007.2
20260503184846 20 217 6.4 11.3 0.00 0.00 0.00 32 1007.3
20260503183824 20 257 4.8 16.1 0.00 0.00 0.00 35 1007.4
20260503182815 20 248 6.4 12.9 0.00 0.00 0.00 37 1007.3
20260503181824 20 241 3.2 11.3 0.00 0.00 0.00 37 1007.3
20260503180816 20 238 3.2 11.3 0.00 0.00 0.00 38 1007.5
20260503175852 20 297 4.8 11.3 0.00 0.00 0.00 37 1007.5
20260503174815 20 269 6.4 12.9 0.00 0.00 0.00 40 1007.5
20260503173823 20 263 4.8 9.7 0.00 0.00 0.00 40 1007.6
20260503172830 20 264 4.8 6.4 0.00 0.00 0.00 40 1007.6
20260503171829 20 214 3.2 11.3 0.00 0.00 0.00 41 1007.6
20260503170821 19 213 3.2 11.3 0.00 0.00 0.00 42 1007.9
20260503150822 17 265 3.2 6.4 0.00 0.00 0.00 46 1007.5
20260503130830 12 225 1.6 3.2 0.00 0.00 0.00 54 1006.8
20260503110817 11 174 0.0 3.2 0.00 0.00 0.00 54 1005.4
20260503080818 15 177 4.8 12.9 0.00 0.00 0.00 45 1006.7
20260503072818 15 173 3.2 6.4 0.00 0.00 0.00 49 1006.8
20260503071826 14 181 4.8 11.3 0.00 0.00 0.00 50 1007.1
20260503070818 13 174 4.8 12.9 0.00 0.00 0.00 53 1007.5